Regional Weather Roundup
Issued by NWS

Home | Current Version | Previous Version | Graphics & Text | Print | Product List | Glossary On
Versions: 1 2 3 4 5 6 7 8 9 10 11 12 13 14 15 16 17 18 19 20 21 22 23 24 25 26 27 28 29 30 31 32 33 34 35 36 37 38 39 40 41 42 43 44 45 46 47 48 49 50
000
ASUS43 KTOP 042108
RWRKS

WEATHER ROUNDUP FOR KANSAS
NATIONAL WEATHER SERVICE GOODLAND KS
400 PM CDT FRI SEP 04 2015

NOTE:  "FAIR" INDICATES FEW OR NO CLOUDS BELOW 12,000 FEET WITH NO
SIGNIFICANT WEATHER AND/OR OBSTRUCTIONS TO VISIBILITY.

KSZ001>006-013>018-027>032-041>047-042200-
NORTHWEST KANSAS

CITY           SKY/WX    TMP DP  RH WIND       PRES   REMARKS
GOODLAND       FAIR      94  43  17 SW12G17   29.89F
HAYS           FAIR     100  57  23 S23G30    29.83S HX  99
HILL CITY      FAIR      99  57  24 S18G25    29.82F HX  98
RUSSELL        FAIR      99  61  28 S25G32    29.83F HX  99
$$

KSZ061>065-074>080-084>089-042200-
SOUTHWEST KANSAS

CITY           SKY/WX    TMP DP  RH WIND       PRES   REMARKS
DODGE CITY     FAIR      97  54  23 S24G32    29.88F HX  95
ELKHART          N/A     95  56  27 SE15        N/A
GARDEN CITY    FAIR      95  53  24 S22G30    29.88F
GREAT BEND     FAIR      99  63  30 S30       29.84F HX 100
LIBERAL        FAIR      97  59  28 S18G25    29.90F HX  96
PRATT          FAIR      95  55  26 MISG      29.90S
$$

KSZ066>073-081>083-090>101-042200-
SOUTHEAST KANSAS

CITY           SKY/WX    TMP DP  RH WIND       PRES   REMARKS
CHANUTE        FAIR      89  70  53 S15       29.96F
COFFEYVILLE    FAIR      88  71  57 S10       29.95F
HUTCHINSON     FAIR      95  63  34 S23       29.89F HX  96
MEDICINE LODGE   N/A     96  62  32 S15G28    29.87F HX  97
NEWTON         FAIR      93  64  38 S18G24    29.94F HX  95
PARSONS        FAIR      89  71  55 S13G20    29.97F HX  95
WICHITA INTL   FAIR      94  64  37 S16       29.90F HX  95
WICHITA JABRA  FAIR      91  67  44 S17G23    29.91F
WICHITA MCCONL FAIR      92  65  40 SE14      29.91F
WINFIELD       FAIR      94  66  39 S15G24    29.93F HX  97
$$

KSZ007>012-019>026-033>040-048>060-102>105-042200-
NORTHEAST KANSAS

CITY           SKY/WX    TMP DP  RH WIND       PRES   REMARKS
CONCORDIA      FAIR      94  65  38 S22G31    29.85F HX  96
EMPORIA        FAIR      90  66  45 S15G25    29.92F
LAWRENCE       FAIR      92  67  43 S15G24    29.93F HX  95
MANHATTAN      FAIR      95  63  34 S20       29.88F HX  96
MARYSVILLE     FAIR      91  66  43 S16G24    29.87F
OLATHE IND     FAIR      89  68  49 S13G22    29.96F
OLATHE EXE     FAIR      88  68  51 S12       29.95F
SALINA         FAIR      95  65  37 S28       29.86F HX  97
TOPEKA BILLARD FAIR      92  65  40 S16       29.92F
TOPEKA FORBES  FAIR      92  66  42 S15G23    29.92F
$$


USA.gov is the U.S. government's official web portal to all federal, state and local government web resources and services.